Jordan, MT

4:30 AM MDT on September 27, 2016 (GMT -0600)
Jordan

Weather History for KJDN - March, 2013

Change the Weather History Date:

Monday, March 11, 2013

  Actual Average Record
Temperature  
Mean Temperature 31 °F 31 °F  
Max Temperature 41 °F 44 °F 71 °F (2015)
Min Temperature 21 °F 19 °F -19 °F (1951)
Degree Days  
Heating Degree Days 34 34  
Month to date heating degree days 392 394  
Since 1 July heating degree days 5850 6512  
Cooling Degree Days 0 0  
Month to date cooling degree days 0 0  
Year to date cooling degree days 0 0  
Moisture  
Dew Point 20 °F    
Average Humidity 59    
Maximum Humidity 78    
Minimum Humidity 40    
Precipitation  
Precipitation 0.00 in 0.02 in 0.67 in (1954)
Month to date precipitation 0.26 0.16  
Year to date precipitation 0.66 0.64  
Snow  
Snow 0.00 in - - ()
Month to date snowfall 0.0  
Since 1 July snowfall 0.0  
Snow Depth 0.00 in    
Sea Level Pressure  
Sea Level Pressure 30.12 in    
Wind  
Wind Speed 18 mph (NW)    
Max Wind Speed 37 mph    
Max Gust Speed 48 mph    
T = Trace of Precipitation, MM = Missing Value Source: NWS Daily Summary

Daily Weather History Graph

Daily Weather History Graph

Search for Another Location

Airport or City:

Trip Planner

Search our weather history database for the weather conditions in past years. The results will help you decide how hot, cold, wet, or windy it might be!

Date:

Astronomy

Mar. 11, 2013 Rise Set
Actual Time 7:28 AM MDT 7:08 PM MDT
Civil Twilight 6:57 AM MDT 7:38 PM MDT
Nautical Twilight 6:22 AM MDT 8:14 PM MDT
Astronomical Twilight 5:46 AM MDT 8:50 PM MDT
Moon 7:01 AM MDT (3/11) 7:27 PM MDT (3/11)
Length of Visible Light 12h 41m
Length of Day
11h 40m
Waning Crescent, 0% of the Moon is Illuminated
Mar 11
Waning Crescent
Mar 11
New
Mar 19
First Quarter
Mar 27
Full
Apr 2
Last Quarter

Hourly Weather History & Observations

Time (MDT) Temp. Windchill Dew Point Humidity Pressure Visibility Wind Dir Wind Speed Gust Speed Precip Events Conditions
12:48 AM 32.0 °F 24.8 °F 26.1 °F 79% 29.95 in - West 8.1 mph - N/A   Unknown
1:48 AM 36.0 °F 28.5 °F 26.1 °F 67% 29.94 in - WNW 10.4 mph - N/A   Unknown
2:48 AM 37.9 °F 28.2 °F 26.1 °F 62% 29.94 in - NW 18.4 mph 25.3 mph N/A   Unknown
3:48 AM 36.0 °F 28.0 °F 26.1 °F 67% 29.96 in - WNW 11.5 mph - N/A   Unknown
4:48 AM 34.0 °F 24.2 °F 24.1 °F 67% 29.99 in - NW 15.0 mph - N/A   Unknown
5:48 AM 32.0 °F 24.8 °F 23.0 °F 69% 30.02 in - NW 8.1 mph - N/A   Unknown
6:48 AM 30.0 °F 22.4 °F 21.0 °F 69% 30.04 in - WNW 8.1 mph - N/A   Unknown
7:48 AM 28.0 °F 22.8 °F 21.0 °F 75% 30.08 in - WNW 4.6 mph - N/A   Unknown
8:48 AM 34.0 °F 23.8 °F 21.9 °F 61% 30.09 in - NW 16.1 mph - N/A   Unknown
9:48 AM 36.0 °F 25.6 °F 19.9 °F 52% 30.10 in - NW 18.4 mph 27.6 mph N/A   Unknown
10:48 AM 36.0 °F 24.7 °F 18.0 °F 48% 30.11 in - NW 21.9 mph 27.6 mph N/A   Unknown
11:48 AM 39.0 °F 29.0 °F 18.0 °F 43% 30.11 in - NNW 20.7 mph 29.9 mph N/A   Unknown
12:48 PM 39.0 °F 28.5 °F 18.0 °F 43% 30.11 in - NW 23.0 mph 28.8 mph N/A   Unknown
1:48 PM 39.9 °F 28.2 °F 21.0 °F 47% 30.10 in - NW 31.1 mph 38.0 mph N/A   Unknown
2:48 PM 39.9 °F 28.4 °F 21.0 °F 47% 30.10 in - NNW 29.9 mph 39.1 mph N/A   Unknown
3:48 PM 39.0 °F 26.4 °F 17.1 °F 41% 30.12 in - WNW 34.5 mph 43.7 mph N/A   Unknown
4:48 PM 36.0 °F 23.0 °F 15.1 °F 43% 30.16 in - NW 29.9 mph 41.4 mph N/A   Unknown
5:48 PM 35.1 °F 21.6 °F 16.0 °F 46% 30.18 in - NW 31.1 mph 41.4 mph N/A   Unknown
6:48 PM 32.0 °F 19.2 °F 18.0 °F 56% 30.22 in - NW 23.0 mph 34.5 mph N/A   Unknown
7:48 PM 30.0 °F 16.6 °F 17.1 °F 59% 30.27 in - NW 23.0 mph 32.2 mph N/A   Unknown
8:48 PM 28.0 °F 17.5 °F 18.0 °F 66% 30.29 in - NW 12.7 mph - N/A   Unknown
9:48 PM 26.1 °F 15.0 °F 17.1 °F 69% 30.31 in - NNW 12.7 mph - N/A   Unknown
10:48 PM 26.1 °F 15.0 °F 16.0 °F 66% 30.32 in - NW 12.7 mph - N/A   Unknown
11:48 PM 24.1 °F 14.4 °F 17.1 °F 75% 30.34 in - NW 9.2 mph - N/A   Unknown